Mankato, MN

4:39 AM CDT on August 24, 2019 (GMT -0500)
Mankato Regional

Weather History for KMKT - May, 2019

Change the Weather History Date:

Monday, May 20, 2019

  Actual Average Record
Temperature  
Mean Temperature 48 °F -  
Max Temperature 59 °F 64 °F 75 °F (2006)
Min Temperature 36 °F 47 °F 35 °F (1997)
Degree Days  
Heating Degree Days 18    
Moisture  
Dew Point 38 °F    
Average Humidity 69    
Maximum Humidity 97    
Minimum Humidity 44    
Precipitation  
Precipitation 0.00 in - - ()
Sea Level Pressure  
Sea Level Pressure 30.15 in    
Wind  
Wind Speed 7 mph (NNE)    
Max Wind Speed 13 mph    
Max Gust Speed 17 mph    
Visibility 10 miles    
Events      
Averages and records for this station are not official NWS values.
T = Trace of Precipitation, MM = Missing Value Source: NWS Daily Summary

Daily Weather History Graph

Daily Weather History Graph

Search for Another Location

Airport or City:

Astronomy

May. 20, 2019 Rise Set
Actual Time 5:44 AM CDT 8:40 PM CDT
Civil Twilight 5:09 AM CDT 9:15 PM CDT
Nautical Twilight 4:26 AM CDT 9:59 PM CDT
Astronomical Twilight 3:35 AM CDT 10:50 PM CDT
Moon 10:43 PM CDT (5/20) 7:12 AM CDT (5/20)
Length of Visible Light 16h 05m
Length of Day
14h 56m
Waning Gibbous, 96% of the Moon is Illuminated
May 20
Waning Gibbous
May 26
Last Quarter
Jun 3
New
Jun 10
First Quarter
Jun 17
Full

Hourly Weather History & Observations

Time (CDT) Temp. Windchill Dew Point Humidity Pressure Visibility Wind Dir Wind Speed Gust Speed Precip Events Conditions
12:16 AM 39.2 °F 33.0 °F 35.6 °F 87% 30.05 in 10.0 mi North 9.2 mph - N/A   Overcast
12:56 AM 39.0 °F 34.8 °F 35.1 °F 86% 30.09 in 10.0 mi North 5.8 mph - N/A   Partly Cloudy
1:56 AM 37.9 °F 32.7 °F 35.1 °F 89% 30.09 in 10.0 mi NNW 6.9 mph - N/A   Clear
2:56 AM 37.0 °F 31.6 °F 35.1 °F 93% 30.12 in 10.0 mi WNW 6.9 mph - N/A   Clear
3:56 AM 36.0 °F 31.1 °F 35.1 °F 97% 30.13 in 10.0 mi NW 5.8 mph - N/A   Clear
4:56 AM 37.0 °F 31.0 °F 35.1 °F 93% 30.15 in 10.0 mi NW 8.1 mph - N/A   Clear
5:56 AM 36.0 °F 30.3 °F 35.1 °F 97% 30.17 in 10.0 mi WNW 6.9 mph - N/A   Clear
6:56 AM 37.9 °F 32.7 °F 36.0 °F 93% 30.19 in 10.0 mi West 6.9 mph - N/A   Clear
7:56 AM 42.1 °F 37.7 °F 37.9 °F 85% 30.20 in 10.0 mi WNW 6.9 mph - N/A   Clear
8:56 AM 45.0 °F 38.9 °F 39.0 °F 80% 30.19 in 10.0 mi NNW 12.7 mph - N/A   Clear
9:56 AM 48.9 °F - 42.1 °F 77% 30.18 in 10.0 mi North 11.5 mph - N/A   Scattered Clouds
10:56 AM 52.0 °F - 39.9 °F 63% 30.22 in 10.0 mi Variable 3.5 mph - N/A   Scattered Clouds
11:20 AM 51.8 °F - 39.2 °F 62% 30.18 in 10.0 mi WNW 4.6 mph - N/A   Mostly Cloudy
11:30 AM 53.6 °F - 39.2 °F 58% 30.17 in 9.0 mi NNE 8.1 mph - N/A   Scattered Clouds
11:56 AM 55.0 °F - 37.9 °F 53% 30.20 in 10.0 mi Variable 4.6 mph - N/A   Clear
12:56 PM 55.0 °F - 37.0 °F 51% 30.18 in 10.0 mi NNE 5.8 mph 17.3 mph N/A   Partly Cloudy
1:56 PM 57.0 °F - 37.9 °F 49% 30.16 in 10.0 mi NNE 10.4 mph - N/A   Clear
3:56 PM 59.0 °F - 37.0 °F 44% 30.16 in 10.0 mi NNE 6.9 mph - N/A   Clear
4:56 PM 57.9 °F - 36.0 °F 44% 30.16 in 9.0 mi NE 3.5 mph - N/A   Partly Cloudy
5:56 PM 57.9 °F - 37.0 °F 46% 30.16 in 10.0 mi ESE 8.1 mph - N/A   Clear
6:56 PM 57.9 °F - 37.9 °F 47% 30.14 in 10.0 mi ESE 6.9 mph - N/A   Clear
7:56 PM 55.9 °F - 39.0 °F 53% 30.12 in 10.0 mi East 5.8 mph - N/A   Clear
8:56 PM 54.0 °F - 41.0 °F 62% 30.11 in 10.0 mi East 5.8 mph - N/A   Clear
9:56 PM 53.1 °F - 41.0 °F 64% 30.13 in 10.0 mi East 6.9 mph - N/A   Clear
10:56 PM 52.0 °F - 41.0 °F 66% 30.12 in 10.0 mi East 6.9 mph - N/A   Clear
11:56 PM 52.0 °F - 41.0 °F 66% 30.12 in 10.0 mi East 5.8 mph - N/A   Clear